Swanton, VT

3:08 PM EST on January 20, 2017 (GMT -0500)
Franklin County State

Weather History for KFSO - December, 2012

Change the Weather History Date:

Sunday, December 16, 2012

  Actual Average (KPBG) Record (KPBG)
Temperature  
Mean Temperature 22 °F -  
Max Temperature 32 °F 31 °F 51 °F (1971)
Min Temperature 12 °F 18 °F -14 °F (2013)
Degree Days  
Heating Degree Days 43    
Moisture  
Dew Point 20 °F    
Average Humidity 82    
Maximum Humidity 90    
Minimum Humidity 64    
Precipitation  
Precipitation 0.00 in - - ()
Sea Level Pressure  
Sea Level Pressure 30.11 in    
Wind  
Wind Speed 3 mph (SE)    
Max Wind Speed 13 mph    
Max Gust Speed -    
Visibility 10 miles    
Events Snow    
Averages and records for this station are not official NWS values.
T = Trace of Precipitation, MM = Missing Value Source: NWS Daily Summary

Daily Weather History Graph

Daily Weather History Graph

Search for Another Location

Airport or City:

Trip Planner

Search our weather history database for the weather conditions in past years. The results will help you decide how hot, cold, wet, or windy it might be!

Date:

Astronomy

Dec. 16, 2012 Rise Set
Actual Time 7:24 AM EST 4:11 PM EST
Civil Twilight 6:50 AM EST 4:45 PM EST
Nautical Twilight 6:13 AM EST 5:22 PM EST
Astronomical Twilight 5:37 AM EST 5:58 PM EST
Moon 9:48 AM EST (12/16) 8:31 PM EST (12/16)
Length of Visible Light 9h 54m
Length of Day
8h 47m
Waxing Crescent, 16% of the Moon is Illuminated
Dec 16
Waxing Crescent
Dec 20
First Quarter
Dec 28
Full
Jan 4
Last Quarter
Jan 11
New

Hourly Weather History & Observations

Time (EST) Temp. Windchill Dew Point Humidity Pressure Visibility Wind Dir Wind Speed Gust Speed Precip Events Conditions
12:15 AM 12.4 °F - 8.2 °F 83% 30.31 in 10.0 mi Calm Calm - N/A   Clear
12:35 AM 13.1 °F - 8.6 °F 82% 30.30 in 10.0 mi Calm Calm - N/A   Clear
12:55 AM 13.6 °F 7.7 °F 9.5 °F 84% 30.30 in 10.0 mi NNE 3.5 mph - N/A   Clear
1:15 AM 14.0 °F - 9.9 °F 84% 30.29 in 10.0 mi Calm Calm - N/A   Clear
1:35 AM 14.0 °F - 9.5 °F 82% 30.28 in 10.0 mi Calm Calm - N/A   Clear
1:55 AM 12.9 °F - 8.8 °F 84% 30.27 in 10.0 mi Calm Calm - N/A   Clear
2:15 AM 13.1 °F - 9.0 °F 84% 30.27 in 10.0 mi Calm Calm - N/A   Clear
2:35 AM 14.2 °F - 10.0 °F 84% 30.27 in 10.0 mi Calm Calm - N/A   Clear
3:35 AM 14.4 °F - 10.8 °F 86% 30.25 in 10.0 mi Calm Calm - N/A   Clear
4:15 AM 14.5 °F - 10.9 °F 86% 30.23 in 10.0 mi Calm Calm - N/A   Clear
4:55 AM 14.5 °F - 10.9 °F 86% 30.22 in 10.0 mi Calm Calm - N/A   Clear
5:15 AM 14.5 °F - 10.9 °F 86% 30.22 in 10.0 mi Calm Calm - N/A   Clear
5:35 AM 14.7 °F - 11.3 °F 86% 30.21 in 10.0 mi Calm Calm - N/A   Clear
5:55 AM 16.5 °F - 12.6 °F 84% 30.20 in 10.0 mi Calm Calm - N/A   Clear
6:15 AM 17.1 °F - 13.5 °F 86% 30.20 in 10.0 mi Calm Calm - N/A   Clear
6:35 AM 17.1 °F - 13.1 °F 84% 30.20 in 10.0 mi Calm Calm - N/A   Clear
7:15 AM 17.1 °F - 13.3 °F 85% 30.18 in 10.0 mi Calm Calm - N/A   Scattered Clouds
7:35 AM 17.1 °F - 13.1 °F 84% 30.17 in 10.0 mi Calm Calm - N/A   Mostly Cloudy
7:55 AM 17.4 °F - 13.1 °F 83% 30.18 in 10.0 mi Calm Calm - N/A   Overcast
8:15 AM 17.6 °F - 13.3 °F 83% 30.17 in 10.0 mi Calm Calm - N/A   Overcast
8:55 AM 19.4 °F 14.3 °F 14.0 °F 80% 30.16 in 10.0 mi ENE 3.5 mph - N/A   Overcast
9:15 AM 20.8 °F - 13.6 °F 74% 30.17 in 10.0 mi Calm Calm - N/A   Overcast
9:35 AM 22.1 °F - 14.2 °F 72% 30.16 in 10.0 mi Calm Calm - N/A   Overcast
9:55 AM 24.6 °F - 16.5 °F 71% 30.16 in 10.0 mi Calm Calm - N/A   Overcast
10:15 AM 27.1 °F - 18.3 °F 69% 30.15 in 10.0 mi Calm Calm - N/A   Overcast
10:35 AM 27.1 °F 23.2 °F 17.6 °F 67% 30.15 in 10.0 mi ESE 3.5 mph - N/A   Overcast
10:55 AM 28.0 °F - 17.6 °F 65% 30.14 in 10.0 mi Calm Calm - N/A   Overcast
11:15 AM 28.6 °F - 18.0 °F 64% 30.13 in 10.0 mi Calm Calm - N/A   Overcast
11:35 AM 29.7 °F - 19.4 °F 66% 30.12 in 10.0 mi Calm Calm - N/A Snow Light Snow
11:55 AM 32.0 °F - 21.0 °F 64% 30.11 in 10.0 mi Calm Calm - N/A   Overcast
12:15 PM 31.8 °F - 21.2 °F 65% 30.11 in 10.0 mi Calm Calm - N/A   Overcast
12:55 PM 29.7 °F 22.8 °F 21.6 °F 72% 30.10 in 3.0 mi SSE 6.9 mph - N/A Snow Light Snow
1:15 PM 29.7 °F 21.3 °F 23.4 °F 77% 30.10 in - ESE 9.2 mph - N/A   Overcast
1:35 PM 29.7 °F 22.8 °F 24.1 °F 80% 30.08 in - ESE 6.9 mph - N/A   Overcast
1:55 PM 28.6 °F 22.4 °F 23.7 °F 82% 30.08 in - ESE 5.8 mph - N/A   Overcast
2:15 PM 28.4 °F 22.2 °F 23.7 °F 83% 30.07 in - ESE 5.8 mph - N/A   Overcast
2:35 PM 28.8 °F 20.2 °F 23.9 °F 82% 30.06 in - SE 9.2 mph - N/A   Overcast
2:55 PM 29.7 °F 20.7 °F 23.9 °F 79% 30.05 in - SE 10.4 mph - N/A   Overcast
3:15 PM 29.7 °F 19.6 °F 23.5 °F 78% 30.05 in - SSE 12.7 mph - N/A   Overcast
3:35 PM 29.3 °F 21.5 °F 23.7 °F 80% 30.06 in - SE 8.1 mph - N/A   Overcast
3:55 PM 28.4 °F 20.4 °F 23.9 °F 83% 30.05 in - SE 8.1 mph - N/A   Overcast
4:15 PM 27.5 °F 19.3 °F 24.1 °F 87% 30.04 in - SE 8.1 mph - N/A   Overcast
4:35 PM 27.3 °F 19.1 °F 24.4 °F 89% 30.03 in - SE 8.1 mph - N/A   Unknown
4:55 PM 27.5 °F 18.6 °F 24.8 °F 90% 30.03 in - SE 9.2 mph - N/A   Overcast
5:35 PM 28.0 °F 20.0 °F 25.3 °F 90% 30.02 in - SE 8.1 mph - N/A   Unknown
5:55 PM 28.2 °F 20.2 °F 25.7 °F 90% 30.03 in - SE 8.1 mph - N/A   Unknown
6:15 PM 28.4 °F 20.4 °F 25.7 °F 90% 30.02 in - SE 8.1 mph - N/A   Unknown
6:35 PM 28.4 °F 20.4 °F 25.7 °F 90% 30.02 in - SE 8.1 mph - N/A   Unknown
6:55 PM 28.6 °F 21.5 °F 25.5 °F 88% 30.01 in - SE 6.9 mph - N/A   Overcast
7:15 PM 29.7 °F 22.8 °F 25.7 °F 85% 30.01 in - SE 6.9 mph - N/A   Overcast
7:35 PM 29.7 °F 22.0 °F 25.3 °F 84% 30.00 in - SE 8.1 mph - N/A   Overcast
7:55 PM 29.7 °F 20.7 °F 25.3 °F 84% 30.00 in - SE 10.4 mph - N/A   Overcast
8:15 PM 30.0 °F 22.4 °F 26.2 °F 86% 30.00 in - SE 8.1 mph - N/A   Overcast
8:35 PM 31.8 °F 24.6 °F 28.0 °F 86% 30.00 in - SE 8.1 mph - N/A   Overcast
8:55 PM 32.0 °F 24.8 °F 27.9 °F 85% 30.00 in - SE 8.1 mph - N/A   Overcast
9:15 PM 32.0 °F 25.6 °F 28.4 °F 87% 29.99 in - SE 6.9 mph - N/A   Overcast
9:35 PM 32.0 °F 25.6 °F 28.8 °F 88% 29.99 in - ESE 6.9 mph - N/A   Unknown
9:55 PM 32.0 °F 26.4 °F 28.9 °F 88% 29.98 in - SE 5.8 mph - N/A   Overcast
10:15 PM 32.0 °F 26.4 °F 28.9 °F 88% 29.97 in - ESE 5.8 mph - N/A   Overcast
10:35 PM 32.0 °F 26.4 °F 29.1 °F 89% 29.97 in - ESE 5.8 mph - N/A   Overcast
10:55 PM 32.0 °F 27.5 °F 28.8 °F 88% 29.97 in - ESE 4.6 mph - N/A   Unknown
11:15 PM 32.0 °F 26.4 °F 28.4 °F 87% 29.97 in - SE 5.8 mph - N/A   Unknown
11:35 PM 32.0 °F 26.4 °F 27.5 °F 83% 29.97 in - SE 5.8 mph - N/A   Overcast
11:55 PM 32.0 °F 26.4 °F 27.9 °F 85% 29.96 in - ESE 5.8 mph - N/A   Unknown